CW1569 Weather Reports


Display with metric or nautical units.
time (UTC)temp
F
wind
direction
speed
MPH
gust
MPH
rain 1hr
in
rain 24hr
in
rain mn
in
humidity
%
barometer
mb
20260906115333 66 360 3.0 4.0 0.00 0.00 0.00 98 1016.1
20260906114822 66 360 1.0 4.0 0.00 0.00 0.00 98 1016.1
20260906114332 66 360 1.0 5.0 0.00 0.00 0.00 98 1016.1
20260906113840 66 360 1.0 6.0 0.00 0.00 0.00 98 1016.0
20260906113331 65 360 2.0 5.0 0.00 0.00 0.00 98 1015.8
20260906112838 65 360 2.0 4.0 0.00 0.00 0.00 98 1015.7
20260906112327 65 360 1.0 3.0 0.00 0.00 0.00 98 1015.7
20260906111837 65 360 1.0 2.0 0.00 0.00 0.00 97 1015.7
20260906111328 65 360 1.0 2.0 0.00 0.00 0.00 97 1015.7
20260906110836 65 360 0.0 2.0 0.00 0.00 0.00 97 1015.9
20260906110324 65 360 0.0 2.0 0.00 0.00 0.00 97 1015.8
20260906105834 65 76 0.0 2.0 0.00 0.00 0.00 97 1015.6
20260906105323 65 360 2.0 3.0 0.00 0.00 0.00 97 1015.5
20260906104828 65 76 1.0 3.0 0.00 0.00 0.00 97 1015.5
20260906104337 65 76 1.0 3.0 0.00 0.00 0.00 97 1015.6
20260906103824 65 360 0.0 2.0 0.00 0.00 0.00 97 1015.6
20260906103333 66 360 0.0 3.0 0.00 0.00 0.00 97 1015.5
20260906102823 66 360 0.0 3.0 0.00 0.00 0.00 97 1015.6
20260906102331 66 360 1.0 4.0 0.00 0.00 0.00 97 1015.5
20260906101822 66 76 2.0 4.0 0.00 0.00 0.00 97 1015.5
20260906101333 66 360 1.0 3.0 0.00 0.00 0.00 97 1015.5
20260906100841 66 360 1.0 4.0 0.00 0.00 0.00 97 1015.3
20260906100350 66 360 1.0 4.0 0.00 0.00 0.00 97 1015.2
20260906095839 66 76 1.0 4.0 0.00 0.00 0.00 97 1015.2
20260906095329 66 360 2.0 4.0 0.00 0.00 0.00 97 1015.2
20260906094836 66 360 2.0 6.0 0.00 0.00 0.00 97 1015.3
20260906094347 66 360 3.0 6.0 0.00 0.00 0.00 97 1015.2
20260906093854 66 360 2.0 7.0 0.00 0.00 0.00 97 1015.1
20260906093321 66 360 3.0 7.0 0.00 0.00 0.00 97 1015.2
20260906092830 66 360 2.0 6.0 0.00 0.00 0.00 97 1015.2
20260906092339 66 64 3.0 6.0 0.00 0.00 0.00 97 1015.1
20260906091829 66 360 3.0 7.0 0.00 0.00 0.00 97 1015.1
20260906091334 66 360 4.0 7.0 0.00 0.00 0.00 97 1015.1
20260906090821 66 360 1.0 6.0 0.00 0.00 0.00 97 1015.1
20260906090333 66 63 2.0 6.0 0.00 0.00 0.00 97 1015.2
20260906085842 66 360 1.0 4.0 0.00 0.00 0.00 97 1015.2
20260906085329 66 360 1.0 4.0 0.00 0.00 0.00 97 1015.1
20260906084839 66 360 1.0 4.0 0.00 0.00 0.00 97 1015.1
20260906084332 66 360 0.0 0.0 0.00 0.00 0.00 97 1015.2
20260906083838 66 360 0.0 0.0 0.00 0.00 0.00 97 1015.1
20260906083327 66 360 0.0 0.0 0.00 0.00 0.00 97 1015.1
20260906082837 66 360 0.0 0.0 0.00 0.00 0.00 97 1015.1
20260906082347 66 360 0.0 0.0 0.00 0.00 0.00 97 1015.1
20260906081836 66 360 0.0 0.0 0.00 0.00 0.00 97 1015.1
20260906081326 66 360 0.0 0.0 0.00 0.00 0.00 97 1015.1
20260906080833 66 360 0.0 2.0 0.00 0.00 0.00 97 1015.1
20260906080344 66 360 0.0 3.0 0.00 0.00 0.00 97 1015.0
20260906075854 66 360 1.0 3.0 0.00 0.00 0.00 97 1015.0
20260906075322 66 360 0.0 0.0 0.00 0.00 0.00 97 1015.0
20260906074833 66 360 0.0 0.0 0.00 0.00 0.00 97 1014.9
20260906074338 66 360 0.0 0.0 0.00 0.00 0.00 97 1015.1
20260906073846 66 360 0.0 0.0 0.00 0.00 0.00 97 1015.2
20260906073352 66 360 0.0 0.0 0.00 0.00 0.00 97 1015.1
20260906072822 66 360 0.0 0.0 0.00 0.00 0.00 96 1015.2
20260906072331 66 360 0.0 0.0 0.00 0.00 0.00 96 1015.2
20260906071821 66 360 0.0 4.0 0.00 0.00 0.00 96 1015.1
20260906071334 66 360 0.0 4.0 0.00 0.00 0.00 96 1015.0
20260906070821 66 360 0.0 2.0 0.00 0.00 0.00 96 1015.2
20260906070331 66 360 0.0 2.0 0.00 0.00 0.00 96 1015.1
20260906065839 66 360 0.0 2.0 0.00 0.00 0.00 96 1015.0
20260906065328 66 360 0.0 2.0 0.00 0.00 0.00 96 1015.0
20260906064839 66 360 0.0 3.0 0.00 0.00 0.00 96 1015.2
20260906064349 66 360 1.0 3.0 0.00 0.00 0.00 96 1015.3
20260906063854 66 360 1.0 3.0 0.00 0.00 0.00 96 1015.2
20260906063324 66 360 0.0 0.0 0.00 0.00 0.00 96 1015.2
20260906062832 67 360 0.0 0.0 0.00 0.00 0.00 96 1015.1
20260906062321 67 360 0.0 0.0 0.00 0.00 0.00 96 1015.1
20260906061831 67 360 0.0 0.0 0.00 0.00 0.00 96 1015.1
20260906061341 67 360 0.0 0.0 0.00 0.00 0.00 96 1015.2
20260906060830 67 360 0.0 0.0 0.00 0.00 0.00 96 1015.1
20260906060402 67 360 0.0 0.0 0.00 0.00 0.00 96 1015.1
20260906055850 67 360 0.0 0.0 0.00 0.00 0.00 96 1015.1
20260906055337 67 360 0.0 0.0 0.00 0.00 0.00 96 1015.0
20260906054826 67 360 0.0 0.0 0.00 0.00 0.00 96 1015.0
20260906054337 67 360 0.0 0.0 0.00 0.00 0.00 96 1015.0
20260906053824 67 360 0.0 0.0 0.00 0.00 0.00 96 1015.0
20260906053332 67 360 0.0 0.0 0.00 0.00 0.00 95 1015.1
20260906052842 67 360 0.0 0.0 0.00 0.00 0.00 95 1014.9
20260906052329 68 360 0.0 2.0 0.00 0.00 0.00 95 1014.9
20260906051836 68 360 0.0 3.0 0.00 0.00 0.00 95 1014.8
20260906051328 68 360 1.0 2.0 0.00 0.00 0.00 95 1014.8
20260906050833 68 360 0.0 3.0 0.00 0.00 0.00 95 1014.8
20260906050323 68 360 0.0 4.0 0.00 0.00 0.00 95 1014.8
20260906045833 68 360 1.0 6.0 0.00 0.00 0.00 95 1014.7
20260906045340 68 360 2.0 6.0 0.00 0.00 0.00 95 1014.7
20260906044828 68 360 1.0 6.0 0.00 0.00 0.00 95 1014.6
20260906044338 68 360 3.0 6.0 0.00 0.00 0.00 95 1014.6
20260906043827 68 360 2.0 6.0 0.00 0.00 0.00 95 1014.6
20260906043332 69 360 2.0 7.0 0.00 0.00 0.00 95 1014.5
20260906042841 69 360 5.0 7.0 0.00 0.00 0.00 95 1014.5
20260906042346 69 76 3.0 7.0 0.00 0.00 0.00 95 1014.6
20260906041832 69 360 3.0 7.0 0.00 0.00 0.00 95 1014.5
20260906041323 69 360 3.0 7.0 0.00 0.00 0.00 95 1014.3
20260906040829 69 360 2.0 7.0 0.00 0.00 0.00 95 1014.1
20260906040338 69 360 4.0 7.0 0.00 0.00 0.00 95 1014.1
20260906035827 69 360 2.0 7.0 0.00 0.00 0.00 95 1014.1
20260906035338 68 360 3.0 7.0 0.00 0.00 0.00 95 1014.1
20260906034828 68 360 3.0 7.0 0.00 0.00 0.00 95 1014.2
20260906034336 68 360 3.0 6.0 0.00 0.00 0.00 95 1014.1
20260906033823 68 360 3.0 9.0 0.00 0.00 0.00 95 1013.9
20260906033359 68 360 2.0 9.0 0.00 0.00 0.00 95 1014.0
20260906032827 68 360 1.0 7.0 0.00 0.00 0.00 94 1014.0
20260906032337 69 360 1.0 10.0 0.00 0.00 0.00 94 1014.0
20260906031827 69 360 5.0 10.0 0.00 0.00 0.00 94 1014.1
20260906031336 69 360 4.0 9.0 0.00 0.00 0.00 94 1014.1
20260906030824 69 360 4.0 9.0 0.00 0.00 0.00 94 1013.9
20260906030357 69 360 3.0 9.0 0.00 0.00 0.00 94 1013.9
20260906025823 69 360 4.0 11.0 0.00 0.00 0.00 94 1013.9
20260906025400 69 360 5.0 11.0 0.00 0.00 0.00 94 1014.0
20260906024827 69 360 4.0 9.0 0.00 0.00 0.00 94 1014.0
20260906024337 69 360 3.0 8.0 0.00 0.00 0.00 93 1013.9
20260906023825 69 360 5.0 8.0 0.00 0.00 0.00 93 1014.0
20260906023334 69 360 3.0 9.0 0.00 0.00 0.00 93 1013.9
20260906022824 69 360 5.0 12.0 0.00 0.00 0.00 93 1013.9
20260906022333 69 360 3.0 12.0 0.00 0.00 0.00 93 1013.9
20260906021842 69 360 4.0 9.0 0.00 0.00 0.00 93 1013.9
20260906021353 69 360 5.0 9.0 0.00 0.00 0.00 93 1014.0
20260906020840 70 360 6.0 9.0 0.00 0.00 0.00 92 1013.9
20260906020348 70 360 1.0 7.0 0.00 0.00 0.00 92 1014.0
20260906015837 70 360 2.0 9.0 0.00 0.00 0.00 92 1014.1
20260906015325 70 360 3.0 9.0 0.00 0.00 0.00 92 1014.0
20260906014833 70 360 2.0 10.0 0.00 0.00 0.00 92 1014.1
20260906014324 70 360 3.0 10.0 0.00 0.00 0.00 92 1014.1
20260906013830 70 360 3.0 8.0 0.00 0.00 0.00 92 1014.0
20260906013336 70 80 1.0 7.0 0.00 0.00 0.00 92 1014.0
20260906012825 70 360 1.0 7.0 0.00 0.00 0.00 92 1014.1
20260906012334 70 360 3.0 7.0 0.00 0.00 0.00 92 1014.0
20260906011823 70 360 3.0 8.0 0.00 0.00 0.00 92 1014.0
20260906011401 70 360 3.0 10.0 0.00 0.00 0.00 92 1014.0
20260906010827 70 360 4.0 10.0 0.00 0.00 0.00 92 1014.0
20260906010337 70 360 4.0 7.0 0.00 0.00 0.00 92 1014.0
20260906005848 70 360 3.0 9.0 0.00 0.00 0.00 92 1014.0
20260906005334 70 360 2.0 9.0 0.00 0.00 0.00 92 1013.9
20260906004822 70 360 2.0 8.0 0.00 0.00 0.00 92 1013.7
20260906004401 70 360 3.0 12.0 0.00 0.00 0.00 92 1013.7
20260906003827 70 360 7.0 12.0 0.00 0.00 0.00 92 1013.6
20260906003337 70 360 4.0 15.0 0.00 0.00 0.00 92 1013.5
20260906002828 71 360 8.0 15.0 0.00 0.00 0.00 92 1013.4
20260906002336 71 360 5.0 17.0 0.00 0.00 0.00 92 1013.4
20260906001825 71 360 5.0 17.0 0.00 0.00 0.00 92 1013.5
20260906001335 71 360 5.0 11.0 0.00 0.00 0.00 92 1013.5
20260906000822 71 360 4.0 14.0 0.00 0.00 0.00 91 1013.5
20260906000356 71 360 8.0 14.0 0.00 0.00 0.00 91 1013.5
20260905235822 71 360 8.0 13.0 0.00 0.00 0.00 91 1013.5
20260905235333 71 360 7.0 13.0 0.00 0.00 0.00 91 1013.5
20260905234824 71 57 5.0 13.0 0.00 0.00 0.00 91 1013.5
20260905234334 71 360 4.0 13.0 0.00 0.00 0.00 91 1013.6
20260905233841 71 360 3.0 14.0 0.00 0.00 0.00 91 1013.6
20260905233330 71 360 6.0 14.0 0.00 0.00 0.00 91 1013.6
20260905232840 71 360 6.0 10.0 0.00 0.00 0.00 91 1013.7
20260905232330 71 360 6.0 11.0 0.00 0.00 0.00 91 1013.6
20260905231840 71 360 4.0 12.0 0.00 0.00 0.00 90 1013.6
20260905231330 71 360 6.0 12.0 0.00 0.00 0.00 90 1013.4
20260905230837 72 360 4.0 10.0 0.00 0.00 0.00 90 1013.5
20260905230325 72 360 2.0 11.0 0.00 0.00 0.00 89 1013.5
20260905225836 72 360 4.0 12.0 0.00 0.00 0.00 89 1013.4
20260905225326 72 360 5.0 13.0 0.00 0.00 0.00 89 1013.4
20260905224835 72 360 6.0 14.0 0.00 0.00 0.00 88 1013.3
20260905224325 73 360 7.0 14.0 0.00 0.00 0.00 88 1013.3
20260905223859 73 360 5.0 12.0 0.00 0.00 0.00 87 1013.3
20260905223329 73 360 6.0 12.0 0.00 0.00 0.00 87 1013.3
20260905222838 74 360 7.0 12.0 0.00 0.00 0.00 86 1013.3
20260905222348 74 360 6.0 12.0 0.00 0.00 0.00 86 1013.3
20260905221852 74 360 3.0 12.0 0.00 0.00 0.00 86 1013.2
20260905221342 75 360 5.0 14.0 0.00 0.00 0.00 85 1013.2
20260905220829 75 360 9.0 13.0 0.00 0.00 0.00 84 1013.1
20260905220337 75 360 7.0 12.0 0.00 0.00 0.00 85 1013.2
20260905215826 75 360 3.0 12.0 0.00 0.00 0.00 85 1013.0
20260905215336 75 360 5.0 14.0 0.00 0.00 0.00 84 1012.8
20260905214844 75 360 8.0 16.0 0.00 0.00 0.00 84 1012.8
20260905214355 76 360 6.0 16.0 0.00 0.00 0.00 83 1012.9
20260905213842 76 360 7.0 16.0 0.00 0.00 0.00 83 1012.7
20260905213349 76 360 7.0 15.0 0.00 0.00 0.00 82 1012.7
20260905212837 77 360 5.0 13.0 0.00 0.00 0.00 82 1012.5
20260905212326 77 360 5.0 14.0 0.00 0.00 0.00 81 1012.5
20260905211837 77 360 7.0 14.0 0.00 0.00 0.00 82 1012.4
20260905211348 77 360 3.0 13.0 0.00 0.00 0.00 83 1012.5
20260905210855 77 360 7.0 13.0 0.00 0.00 0.00 81 1012.5
20260905210323 78 360 6.0 13.0 0.00 0.00 0.00 81 1012.3
20260905205834 78 360 6.0 13.0 0.00 0.00 0.00 81 1012.4
20260905205321 78 360 5.0 11.0 0.00 0.00 0.00 82 1012.4
20260905204824 79 360 5.0 13.0 0.00 0.00 0.00 82 1012.4
20260905204335 79 360 5.0 13.0 0.00 0.00 0.00 82 1012.3
20260905203822 79 360 7.0 12.0 0.00 0.00 0.00 82 1012.3
20260905203331 79 360 4.0 12.0 0.00 0.00 0.00 80 1012.3
20260905202840 79 360 6.0 11.0 0.00 0.00 0.00 81 1012.2
20260905202351 79 360 6.0 11.0 0.00 0.00 0.00 79 1012.2
20260905201840 79 360 7.0 11.0 0.00 0.00 0.00 77 1012.4
20260905201350 80 360 4.0 11.0 0.00 0.00 0.00 78 1012.4
20260905200837 80 360 4.0 11.0 0.00 0.00 0.00 78 1012.3
20260905200326 79 360 2.0 9.0 0.00 0.00 0.00 79 1012.3
20260905195835 79 360 4.0 11.0 0.00 0.00 0.00 78 1012.3
20260905195344 79 360 6.0 11.0 0.00 0.00 0.00 78 1012.4
20260905194858 79 360 2.0 7.0 0.00 0.00 0.00 80 1012.4
20260905194347 79 57 1.0 11.0 0.00 0.00 0.00 81 1012.4
20260905193828 79 360 1.0 11.0 0.00 0.00 0.00 81 1012.7
20260905193338 78 360 4.0 10.0 0.00 0.00 0.00 82 1012.7
20260905192848 78 360 4.0 11.0 0.00 0.00 0.00 82 1012.7
20260905192335 78 360 5.0 11.0 0.00 0.00 0.00 83 1012.7
20260905191846 78 360 4.0 10.0 0.00 0.00 0.00 84 1012.7
20260905191356 77 360 7.0 10.0 0.00 0.00 0.00 83 1012.7
20260905190845 77 360 5.0 8.0 0.00 0.00 0.00 83 1012.8
20260905190355 77 360 2.0 8.0 0.00 0.00 0.00 84 1012.8
20260905185823 77 360 2.0 10.0 0.00 0.00 0.00 84 1012.8
20260905185359 77 360 4.0 10.0 0.00 0.00 0.00 84 1012.9
20260905184828 77 360 7.0 12.0 0.00 0.00 0.00 84 1012.9
20260905184339 77 360 5.0 12.0 0.00 0.00 0.00 84 1012.9
20260905183847 77 360 3.0 10.0 0.00 0.00 0.00 85 1013.0
20260905183355 77 360 3.0 10.0 0.00 0.00 0.00 87 1013.1
20260905182825 76 360 4.0 9.0 0.00 0.00 0.00 86 1013.1
20260905182329 76 360 5.0 9.0 0.00 0.00 0.00 86 1013.1
20260905181839 76 360 3.0 10.0 0.00 0.00 0.00 87 1013.0
20260905181328 76 360 1.0 10.0 0.00 0.00 0.00 88 1013.0
20260905180835 75 360 2.0 11.0 0.00 0.00 0.00 88 1013.1
20260905180324 75 360 5.0 11.0 0.00 0.00 0.00 88 1013.1
20260905175834 75 360 5.0 10.0 0.00 0.00 0.00 88 1013.0
20260905175343 75 360 1.0 9.0 0.00 0.00 0.00 88 1012.9
20260905174833 75 360 3.0 9.0 0.00 0.02 0.00 88 1012.9
20260905174323 75 360 4.0 9.0 0.00 0.02 0.00 88 1012.9
20260905173832 75 52 5.0 8.0 0.00 0.02 0.00 88 1012.9
20260905173321 76 360 4.0 8.0 0.00 0.02 0.00 88 1012.9
20260905172830 75 61 2.0 6.0 0.00 0.02 0.00 89 1013.0
20260905172407 75 360 3.0 6.0 0.00 0.02 0.00 89 1013.1
20260905171854 75 360 1.0 6.0 0.00 0.02 0.00 90 1013.0
20260905171324 75 65 4.0 8.0 0.00 0.02 0.00 90 1013.1
20260905170831 75 58 6.0 8.0 0.00 0.02 0.00 89 1013.1
20260905170321 74 360 3.0 7.0 0.00 0.02 0.00 90 1013.2
20260905165830 74 360 2.0 8.0 0.00 0.02 0.00 90 1013.2
20260905165335 74 360 4.0 10.0 0.00 0.02 0.00 90 1013.3
20260905164826 74 360 4.0 10.0 0.00 0.03 0.00 90 1013.4
20260905164337 74 360 4.0 11.0 0.00 0.03 0.00 90 1013.4
20260905163825 74 360 4.0 11.0 0.00 0.03 0.00 90 1013.5
20260905163337 74 360 4.0 10.0 0.00 0.03 0.00 91 1013.2
20260905162847 74 71 6.0 10.0 0.00 0.03 0.00 91 1013.2
20260905162358 74 360 4.0 10.0 0.00 0.03 0.00 91 1013.2
20260905161826 74 360 5.0 11.0 0.00 0.03 0.00 91 1013.4
20260905161339 74 360 5.0 11.0 0.00 0.03 0.00 91 1013.4
20260905160825 74 360 5.0 11.0 0.00 0.03 0.00 91 1013.3
20260905160335 74 360 5.0 11.0 0.00 0.03 0.00 91 1013.3
20260905155825 74 360 4.0 8.0 0.00 0.03 0.00 91 1013.2
20260905155335 74 360 4.0 8.0 0.00 0.03 0.00 91 1013.1
20260905154825 74 70 3.0 11.0 0.00 0.04 0.00 91 1013.1
20260905154337 74 360 5.0 11.0 0.00 0.04 0.00 90 1013.1
20260905153845 74 360 3.0 11.0 0.00 0.04 0.00 91 1013.0
20260905153355 74 360 1.0 11.0 0.00 0.04 0.00 91 1013.0
20260905152825 74 66 5.0 11.0 0.00 0.04 0.00 91 1012.9
20260905152334 74 360 3.0 9.0 0.00 0.04 0.00 92 1012.9
20260905151824 74 360 3.0 8.0 0.00 0.04 0.00 92 1012.6
20260905151335 74 360 3.0 8.0 0.00 0.04 0.00 92 1012.8
20260905150840 74 360 4.0 8.0 0.00 0.04 0.00 92 1012.6
20260905150349 74 360 3.0 8.0 0.00 0.04 0.00 92 1012.6
20260905145837 74 360 1.0 11.0 0.00 0.04 0.00 93 1012.5
20260905145349 74 360 4.0 11.0 0.00 0.04 0.00 93 1012.5
20260905144837 74 360 6.0 9.0 0.00 0.04 0.00 93 1012.5
20260905144328 74 360 4.0 10.0 0.00 0.04 0.00 93 1012.6
20260905143837 74 360 5.0 10.0 0.00 0.04 0.00 94 1012.5
20260905143325 74 360 4.0 7.0 0.00 0.04 0.00 94 1012.5
20260905142835 74 360 2.0 7.0 0.00 0.04 0.00 94 1012.5
20260905142325 73 360 2.0 8.0 0.00 0.04 0.00 94 1012.5
20260905141836 73 360 5.0 10.0 0.00 0.04 0.00 94 1012.5
20260905141326 73 360 1.0 9.0 0.00 0.04 0.00 95 1012.4
20260905140900 73 360 4.0 9.0 0.00 0.04 0.00 95 1012.4
20260905140329 73 360 4.0 10.0 0.00 0.04 0.00 95 1012.2
20260905135838 73 360 5.0 10.0 0.00 0.04 0.00 95 1012.3
20260905135347 73 360 5.0 10.0 0.00 0.04 0.00 95 1012.2
20260905134855 73 360 4.0 9.0 0.00 0.04 0.00 96 1012.2
20260905134324 72 360 1.0 10.0 0.00 0.04 0.00 96 1012.2
20260905133827 72 360 5.0 10.0 0.00 0.04 0.00 96 1012.2
20260905133338 73 360 4.0 10.0 0.00 0.04 0.00 96 1012.4
20260905132848 73 360 2.0 10.0 0.00 0.04 0.00 96 1012.5
20260905132333 73 360 4.0 8.0 0.00 0.04 0.00 96 1012.5
20260905131823 73 360 4.0 10.0 0.00 0.04 0.00 97 1012.7
20260905131334 72 64 5.0 10.0 0.00 0.04 0.00 97 1012.6
20260905130840 72 360 3.0 9.0 0.00 0.04 0.00 97 1012.2
20260905130330 72 360 6.0 9.0 0.00 0.04 0.00 97 1012.1
20260905125840 72 360 6.0 10.0 0.00 0.04 0.00 97 1012.1
20260905125330 72 360 5.0 10.0 0.00 0.04 0.00 97 1012.1
20260905124840 72 360 5.0 12.0 0.00 0.04 0.00 97 1011.9
20260905124331 72 360 5.0 12.0 0.00 0.04 0.00 97 1011.9
20260905123838 72 360 2.0 7.0 0.00 0.04 0.00 97 1011.7
20260905123347 72 360 3.0 9.0 0.00 0.04 0.00 97 1011.6
20260905122834 72 360 2.0 9.0 0.00 0.04 0.00 97 1011.5
20260905122322 72 360 4.0 7.0 0.00 0.04 0.00 97 1011.4
20260905121831 72 360 1.0 7.0 0.00 0.04 0.00 97 1011.3
20260905121340 72 360 1.0 6.0 0.00 0.04 0.00 97 1011.2
20260905120827 72 360 1.0 8.0 0.00 0.04 0.00 97 1011.2
20260905120332 72 360 1.0 8.0 0.00 0.04 0.00 97 1011.1
20260905115840 71 360 2.0 7.0 0.00 0.04 0.00 97 1011.1